CW4340 Weather Reports


Display with metric or nautical units.
time (UTC)temp
F
wind
direction
speed
MPH
gust
MPH
rain 1hr
in
rain 24hr
in
rain mn
in
humidity
%
barometer
mb
20260505124504 73 173 0.0 0.0 0.00 0.00 0.00 87 1010.1
20260505124005 73 166 0.0 0.0 0.00 0.00 0.00 87 1009.9
20260505123504 73 175 0.0 0.0 0.00 0.00 0.00 87 1009.9
20260505123005 73 184 0.0 0.0 0.00 0.00 0.00 87 1009.9
20260505122505 73 179 0.0 0.0 0.00 0.00 0.00 88 1009.8
20260505122004 72 162 0.0 0.0 0.00 0.00 0.00 88 1009.9
20260505121504 72 194 0.0 0.0 0.00 0.00 0.00 88 1009.8
20260505121004 72 156 0.0 0.0 0.00 0.00 0.00 88 1009.8
20260505120504 72 165 0.0 0.0 0.00 0.00 0.00 88 1009.8
20260505115004 72 182 0.0 0.0 0.00 0.00 0.00 88 1009.7
20260505114504 71 178 0.0 0.0 0.00 0.00 0.00 88 1009.6
20260505114004 71 167 0.0 0.0 0.00 0.00 0.00 88 1009.7
20260505113504 71 174 0.0 0.0 0.00 0.00 0.00 88 1009.8
20260505113004 71 188 0.0 0.0 0.00 0.00 0.00 88 1009.7
20260505112504 71 183 0.0 0.0 0.00 0.00 0.00 88 1009.5
20260505112004 71 179 0.0 0.0 0.00 0.00 0.00 88 1009.6
20260505111004 71 155 0.0 0.0 0.00 0.00 0.00 88 1009.5
20260505110504 70 184 0.0 0.0 0.00 0.00 0.00 88 1009.4
20260505102005 69 186 0.0 0.0 0.00 0.00 0.00 88 1009.5
20260505101504 69 173 0.0 0.0 0.00 0.00 0.00 88 1009.5
20260505101004 69 174 0.0 0.0 0.00 0.00 0.00 88 1009.7
20260505100502 69 174 0.0 0.0 0.00 0.00 0.00 88 1009.7
20260505100003 69 174 0.0 0.0 0.00 0.00 0.00 88 1009.7
20260505095503 69 172 0.0 0.0 0.00 0.00 0.00 88 1009.8
20260505094503 69 179 0.0 0.0 0.00 0.00 0.00 88 1009.8
20260505093503 69 177 0.0 0.0 0.00 0.00 0.00 88 1009.9
20260505093002 69 184 0.0 0.0 0.00 0.00 0.00 88 1010.0
20260505092502 69 185 0.0 0.0 0.00 0.00 0.00 88 1010.0
20260505092003 69 166 0.0 0.0 0.00 0.00 0.00 88 1010.0
20260505091503 69 165 0.0 0.0 0.00 0.00 0.00 88 1010.1
20260505091003 68 165 0.0 0.0 0.00 0.00 0.00 88 1010.0
20260505090503 68 173 0.0 0.0 0.00 0.00 0.00 89 1010.0
20260505085502 68 174 0.0 0.0 0.00 0.00 0.00 89 1010.1
20260505085002 68 175 0.0 0.0 0.00 0.00 0.00 89 1010.1
20260505084003 68 175 0.0 0.0 0.00 0.00 0.00 89 1010.0
20260505083003 68 175 0.0 0.0 0.00 0.00 0.00 88 1010.1
20260505082503 68 175 0.0 0.0 0.00 0.00 0.00 88 1010.0
20260505081503 68 174 0.0 0.0 0.00 0.00 0.00 88 1010.0
20260505080002 68 180 0.0 0.0 0.00 0.00 0.00 88 1010.2
20260505075502 68 184 0.0 0.0 0.00 0.00 0.00 88 1010.2
20260505075002 68 184 0.0 0.0 0.00 0.00 0.00 88 1010.2
20260505074003 68 205 0.0 0.0 0.00 0.00 0.00 88 1010.2
20260505073503 68 205 0.0 0.0 0.00 0.00 0.00 88 1010.1
20260505073003 68 176 0.0 0.0 0.00 0.00 0.00 88 1010.3
20260505072503 68 183 0.0 0.0 0.00 0.00 0.00 87 1010.4
20260505072003 68 183 0.0 0.0 0.00 0.00 0.00 87 1010.5
20260505071502 68 183 0.0 0.0 0.00 0.00 0.00 87 1010.5
20260505071002 68 183 0.0 0.0 0.00 0.00 0.00 87 1010.2
20260505070502 68 184 0.0 0.0 0.00 0.00 0.00 87 1010.3
20260505070003 68 194 0.0 0.0 0.00 0.00 0.00 87 1010.4
20260505065504 68 186 0.0 0.0 0.00 0.00 0.00 87 1010.5
20260505065003 68 175 0.0 0.0 0.00 0.00 0.00 87 1010.7
20260505064503 68 171 0.0 0.0 0.00 0.00 0.00 87 1010.8
20260505064003 68 172 0.0 0.0 0.00 0.00 0.00 87 1010.8
20260505063503 68 172 0.0 0.0 0.00 0.00 0.00 87 1010.8
20260505062502 68 167 0.0 0.0 0.00 0.00 0.00 87 1010.9
20260505062003 68 169 0.0 0.0 0.00 0.00 0.00 86 1010.9
20260505061502 68 176 0.0 0.0 0.00 0.00 0.00 86 1010.9
20260505061003 68 178 0.0 0.0 0.00 0.00 0.00 86 1011.0
20260505060503 68 178 0.0 0.0 0.00 0.00 0.00 86 1011.0
20260505060002 68 178 0.0 0.0 0.00 0.00 0.00 86 1011.1
20260505055503 68 152 0.0 0.0 0.00 0.00 0.00 86 1011.1
20260505055003 68 152 0.0 0.0 0.00 0.00 0.00 86 1011.1
20260505054502 68 152 0.0 0.0 0.00 0.00 0.00 86 1011.1
20260505054003 68 151 0.0 0.0 0.00 0.00 0.00 85 1011.2
20260505053502 68 150 0.0 0.0 0.00 0.00 0.00 85 1011.2
20260505053003 68 150 0.0 0.0 0.00 0.00 0.00 85 1011.2
20260505052004 68 149 0.0 0.0 0.00 0.00 0.00 85 1011.4
20260505051503 68 149 0.0 0.0 0.00 0.00 0.00 85 1011.4
20260505051003 68 149 0.0 0.0 0.00 0.00 0.00 85 1011.5
20260505050503 68 211 0.0 0.0 0.00 0.00 0.00 85 1011.3
20260505041502 69 175 0.0 0.0 0.00 0.00 0.00 84 1011.8
20260505041003 69 175 0.0 0.0 0.00 0.00 0.00 84 1011.7
20260505040502 69 171 0.0 0.0 0.00 0.00 0.00 84 1011.6
20260505040002 69 173 0.0 0.0 0.00 0.00 0.00 84 1011.5
20260505035502 69 176 0.0 0.0 0.00 0.00 0.00 83 1011.7
20260505035003 69 167 0.0 0.0 0.00 0.00 0.00 83 1012.0
20260505034003 69 174 0.0 0.0 0.00 0.00 0.00 83 1012.2
20260505033502 69 176 0.0 0.0 0.00 0.00 0.00 83 1012.2
20260505033003 69 177 0.0 0.0 0.00 0.00 0.00 83 1012.0
20260505032503 70 177 0.0 0.0 0.00 0.00 0.00 82 1011.9
20260505032004 70 175 0.0 0.0 0.00 0.00 0.00 82 1012.0
20260505031502 70 187 0.0 0.0 0.00 0.00 0.00 82 1012.0
20260505031003 70 182 0.0 0.0 0.00 0.00 0.00 82 1011.7
20260505030503 70 192 0.0 0.0 0.00 0.00 0.00 82 1011.8
20260505030002 70 178 0.0 0.0 0.00 0.00 0.00 82 1011.9
20260505025502 70 177 0.0 0.0 0.00 0.00 0.00 82 1011.9
20260505025004 70 179 0.0 0.0 0.00 0.00 0.00 82 1012.0
20260505024503 70 180 0.0 0.0 0.00 0.00 0.00 82 1011.7
20260505024003 71 182 0.0 0.0 0.00 0.00 0.00 81 1011.8
20260505023502 71 179 0.0 0.0 0.00 0.00 0.00 81 1011.8
20260505023002 71 179 0.0 0.0 0.00 0.00 0.00 81 1011.8
20260505022503 71 167 0.0 0.0 0.00 0.00 0.00 81 1011.7
20260505022003 71 158 0.0 0.0 0.00 0.00 0.00 81 1011.7
20260505021503 71 172 0.0 0.0 0.00 0.00 0.00 81 1011.7
20260505021003 71 217 0.0 0.0 0.00 0.00 0.00 80 1011.8
20260505020503 71 189 0.0 0.0 0.00 0.00 0.00 80 1011.7
20260505015503 72 185 0.0 0.0 0.00 0.00 0.00 80 1011.7
20260505015002 72 180 0.0 0.0 0.00 0.00 0.00 79 1011.5
20260505014504 72 189 0.0 0.0 0.00 0.00 0.00 79 1011.4
20260505014003 72 184 0.0 0.0 0.00 0.00 0.00 79 1011.5
20260505013502 72 181 0.0 0.0 0.00 0.00 0.00 79 1011.5
20260505013003 72 172 0.0 0.0 0.00 0.00 0.00 79 1011.6
20260505012503 72 170 0.0 0.0 0.00 0.00 0.00 78 1011.4
20260505010502 73 178 0.0 0.0 0.00 0.00 0.00 77 1011.5
20260505005503 74 183 0.0 0.0 0.00 0.00 0.00 76 1011.5
20260505005003 74 183 0.0 0.0 0.00 0.00 0.00 76 1011.6
20260505004503 74 182 0.0 0.0 0.00 0.00 0.00 76 1011.5
20260505004002 74 195 0.0 0.0 0.00 0.00 0.00 75 1011.5
20260505003003 75 181 0.0 5.0 0.00 0.00 0.00 75 1011.4
20260505001503 75 189 0.0 0.0 0.00 0.00 0.00 74 1011.4
20260505001003 75 182 0.0 0.0 0.00 0.00 0.00 74 1011.5
20260504235503 76 165 0.0 3.0 0.00 0.00 0.00 73 1011.6
20260504234503 76 153 0.0 0.0 0.00 0.00 0.00 72 1011.8
20260504234003 76 184 0.0 0.0 0.00 0.00 0.00 72 1012.0
20260504233503 76 174 0.0 2.0 0.00 0.00 0.00 72 1012.0
20260504233002 76 171 0.0 5.0 0.00 0.00 0.00 72 1012.1
20260504232503 76 184 0.0 0.0 0.00 0.00 0.00 72 1012.1
20260504231002 77 176 0.0 0.0 0.00 0.00 0.00 71 1012.1
20260504230502 77 164 0.0 2.0 0.00 0.00 0.00 70 1012.1
20260504230003 77 133 0.0 0.0 0.00 0.00 0.00 70 1012.1
20260504225503 78 167 0.0 0.0 0.00 0.00 0.00 71 1012.0
20260504225003 78 177 0.0 0.0 0.00 0.00 0.00 70 1012.1
20260504224503 78 191 0.0 0.0 0.00 0.00 0.00 69 1012.1
20260504224003 78 167 0.0 0.0 0.00 0.00 0.00 69 1012.2
20260504223503 78 167 0.0 0.0 0.00 0.00 0.00 69 1012.1
20260504223003 79 184 0.0 0.0 0.00 0.00 0.00 68 1012.2
20260504222503 79 169 0.0 0.0 0.00 0.00 0.00 69 1012.2
20260504221502 79 188 0.0 0.0 0.00 0.00 0.00 69 1012.3
20260504221004 79 177 0.0 0.0 0.00 0.00 0.00 69 1012.3
20260504220503 79 176 0.0 0.0 0.00 0.00 0.00 69 1012.4
20260504220003 79 162 0.0 0.0 0.00 0.00 0.00 68 1012.4
20260504215502 79 155 0.0 0.0 0.00 0.00 0.00 68 1012.4
20260504214003 78 175 0.0 0.0 0.00 0.00 0.00 68 1012.7
20260504213503 79 181 0.0 0.0 0.00 0.00 0.00 67 1012.7
20260504213003 79 169 0.0 0.0 0.00 0.00 0.00 67 1012.8
20260504212003 79 176 0.0 0.0 0.00 0.00 0.00 67 1012.8
20260504211503 79 162 0.0 0.0 0.00 0.00 0.00 67 1012.9
20260504210503 79 192 0.0 0.0 0.00 0.00 0.00 66 1012.9
20260504210003 79 176 0.0 0.0 0.00 0.00 0.00 65 1012.9
20260504205502 79 181 0.0 0.0 0.00 0.00 0.00 66 1013.2
20260504205003 79 167 0.0 0.0 0.00 0.00 0.00 66 1013.0
20260504204503 80 184 0.0 0.0 0.00 0.00 0.00 66 1013.2
20260504203503 79 166 0.0 0.0 0.00 0.00 0.00 65 1013.3
20260504203003 79 197 0.0 0.0 0.00 0.00 0.00 65 1013.3
20260504202003 79 181 0.0 0.0 0.00 0.00 0.00 67 1013.5
20260504201003 79 194 0.0 0.0 0.00 0.00 0.00 65 1013.8
20260504200503 80 164 0.0 0.0 0.00 0.00 0.00 64 1013.9
20260504200003 80 167 0.0 0.0 0.00 0.00 0.00 64 1014.1
20260504195503 80 173 0.0 0.0 0.00 0.00 0.00 65 1014.2
20260504195003 80 160 0.0 0.0 0.00 0.00 0.00 65 1014.2
20260504194503 80 168 0.0 0.0 0.00 0.00 0.00 66 1014.3
20260504194003 80 183 0.0 0.0 0.00 0.00 0.00 66 1014.4
20260504193003 80 180 0.0 0.0 0.00 0.00 0.00 66 1014.5
20260504192503 80 159 0.0 0.0 0.00 0.00 0.00 65 1014.7
20260504192003 80 170 0.0 0.0 0.00 0.00 0.00 63 1014.6
20260504191003 81 182 0.0 0.0 0.00 0.00 0.00 63 1014.7
20260504190503 81 198 0.0 0.0 0.00 0.00 0.00 62 1014.7
20260504190003 80 193 0.0 0.0 0.00 0.00 0.00 64 1014.8
20260504185003 80 185 0.0 0.0 0.00 0.00 0.00 65 1014.9
20260504184503 80 167 0.0 0.0 0.00 0.00 0.00 63 1014.9
20260504184003 80 187 0.0 0.0 0.00 0.00 0.00 63 1015.1
20260504183503 80 180 0.0 0.0 0.00 0.00 0.00 65 1015.1
20260504183003 79 181 0.0 0.0 0.00 0.00 0.00 66 1015.3
20260504182503 79 162 0.0 0.0 0.00 0.00 0.00 64 1015.2
20260504182003 79 192 0.0 0.0 0.00 0.00 0.00 65 1015.3
20260504181503 79 189 0.0 0.0 0.00 0.00 0.00 65 1015.2
20260504181003 79 156 0.0 0.0 0.00 0.00 0.00 65 1015.4
20260504180003 79 170 0.0 0.0 0.00 0.00 0.00 65 1015.6
20260504175503 79 169 0.0 0.0 0.00 0.00 0.00 65 1015.5
20260504174503 78 170 0.0 0.0 0.00 0.00 0.00 66 1015.6
20260504174003 79 169 0.0 0.0 0.00 0.00 0.00 64 1015.8
20260504173503 78 167 0.0 0.0 0.00 0.00 0.00 65 1015.9
20260504173003 78 163 0.0 0.0 0.00 0.00 0.00 65 1015.8
20260504172503 78 182 0.0 0.0 0.00 0.00 0.00 65 1016.0
20260504172002 78 184 0.0 0.0 0.00 0.00 0.00 67 1015.9
20260504171504 78 169 0.0 0.0 0.00 0.00 0.00 66 1015.9
20260504171003 78 194 0.0 0.0 0.00 0.00 0.00 66 1016.1
20260504151003 73 191 0.0 0.0 0.00 0.00 0.00 72 1016.9
20260504150503 72 199 0.0 0.0 0.00 0.00 0.00 72 1017.0
20260504141004 67 180 0.0 0.0 0.00 0.00 0.00 78 1017.1
20260504140503 66 174 0.0 0.0 0.00 0.00 0.00 79 1017.1